Location: Innsbruck
(47.2657°N, 11.3914°E)
Time: 09:59:06
(UTC+01:00)

BEESAT 3 - Pass Details

Date: 08 December 2021
Orbit: 472 x 512 km, 64.9° (Epoch: 22 January)

Event Time Altitude Azimuth Distance (km) Brightness Sun altitude
Rises 17:59:13 0° 194° (SSW) 2,541 ? -15.3°
Reaches altitude 10° 18:01:27 10° 184° (S) 1,673 ? -15.7°
Maximum altitude 18:04:52 34° 119° (ESE) 830 ? -16.3°
Enters shadow 18:05:24 32° 99° (E) 864 ? -16.3°
